INSAT-3DR

Last updated on Thu Nov 21 2024 00:02:19 GMT+0000 (Coordinated Universal Time)

1 41752U 16054A 24324.95254819 -.00000076 00000+0 00000+0 0 9995 2 41752 0.1327 92.1533 0014258 175.1632 209.0730 1.00272272 30065
UTC large
Height (km)
Speed (km/s)
/
Latitude / Longitude
Inclination (degrees)
Orbital Period (minutes)
Azimuth
Elevation
Range (km)
Doppler Factor

Next 0 passes for location: London (51.5072 / 0.1276)

Sorry there are no passes over London.